Time,TemperatureF,DewpointF,PressureIn,WindDirection,WindDirectionDegrees,WindSpeedMPH,WindSpeedGustMPH,Humidity,HourlyPrecipIn,Conditions,Clouds,dailyrainin,SolarRadiationWatts/m^2,SoftwareType,DateUTC
2013-05-06 08:25:00,67.4,59.2,29.85,North,5,3.0,6.0,75,0.00,,,0.00,647,Wunderground v.1.15,2013-05-06 14:25:00,
2013-05-06 08:30:00,66.9,58.7,29.85,North,9,4.0,6.0,75,0.00,,,0.00,670,Wunderground v.1.15,2013-05-06 14:30:00,
2013-05-06 08:35:00,67.1,59.3,29.85,North,351,4.0,4.0,76,0.00,,,0.00,680,Wunderground v.1.15,2013-05-06 14:35:00,
2013-05-06 08:40:00,67.5,59.7,29.85,NNE,22,5.0,6.0,76,0.00,,,0.00,700,Wunderground v.1.15,2013-05-06 14:40:00,
2013-05-06 08:45:00,67.8,59.2,29.84,NNE,15,4.0,4.0,74,0.00,,,0.00,714,Wunderground v.1.15,2013-05-06 14:45:00,
2013-05-06 08:50:00,67.9,59.7,29.84,North,11,4.0,4.0,75,0.00,,,0.00,729,Wunderground v.1.15,2013-05-06 14:50:00,
2013-05-06 08:55:00,68.5,60.3,29.85,North,9,3.0,3.0,75,0.00,,,0.00,747,Wunderground v.1.15,2013-05-06 14:55:00,
2013-05-06 09:00:00,69.7,61.0,29.84,East,100,2.0,2.0,74,0.00,,,0.00,784,Wunderground v.1.15,2013-05-06 15:00:00,
2013-05-06 09:05:00,70.8,60.9,29.84,NE,39,1.0,13.0,71,0.00,,,0.00,791,Wunderground v.1.15,2013-05-06 15:05:00,
2013-05-06 09:10:00,70.8,60.1,29.84,North,9,3.0,13.0,69,0.00,,,0.00,791,Wunderground v.1.15,2013-05-06 15:10:00,
2013-05-06 09:15:00,70.2,59.1,29.83,North,360,5.0,13.0,68,0.00,,,0.00,819,Wunderground v.1.15,2013-05-06 15:15:00,
2013-05-06 09:20:00,69.3,59.1,29.83,NNE,17,8.0,8.0,70,0.00,,,0.00,830,Wunderground v.1.15,2013-05-06 15:20:00,
2013-05-06 09:25:00,69.4,59.6,29.84,North,5,7.0,13.0,71,0.00,,,0.00,828,Wunderground v.1.15,2013-05-06 15:25:00,
2013-05-06 09:30:00,69.9,59.3,29.84,NNE,14,4.0,13.0,69,0.00,,,0.00,891,Wunderground v.1.15,2013-05-06 15:30:00,
2013-05-06 09:35:00,70.5,59.8,29.83,North,5,4.0,13.0,69,0.00,,,0.00,868,Wunderground v.1.15,2013-05-06 15:35:00,
2013-05-06 09:40:00,70.5,58.6,29.83,NNE,27,7.0,13.0,66,0.00,,,0.00,865,Wunderground v.1.15,2013-05-06 15:40:00,
2013-05-06 09:45:00,70.1,58.6,29.83,NNE,24,10.0,13.0,67,0.00,,,0.00,875,Wunderground v.1.15,2013-05-06 15:45:00,
2013-05-06 09:50:00,70.3,58.8,29.84,North,350,9.0,9.0,67,0.00,,,0.00,889,Wunderground v.1.15,2013-05-06 15:50:00,
2013-05-06 09:55:00,70.3,59.6,29.83,NNE,15,7.0,13.0,69,0.00,,,0.00,911,Wunderground v.1.15,2013-05-06 15:55:00,
2013-05-06 10:00:00,71.3,58.9,29.84,NE,38,6.0,13.0,65,0.00,,,0.00,914,Wunderground v.1.15,2013-05-06 16:00:00,
2013-05-06 10:05:00,71.9,59.5,29.84,NNE,23,5.0,13.0,65,0.00,,,0.00,942,Wunderground v.1.15,2013-05-06 16:05:00,
2013-05-06 10:10:00,72.1,59.2,29.83,NNE,32,6.0,6.0,64,0.00,,,0.00,960,Wunderground v.1.15,2013-05-06 16:10:00,
2013-05-06 10:15:00,72.4,59.1,29.83,NNE,17,6.0,13.0,63,0.00,,,0.00,974,Wunderground v.1.15,2013-05-06 16:15:00,
2013-05-06 10:20:00,72.7,58.9,29.83,NE,38,6.0,13.0,62,0.00,,,0.00,972,Wunderground v.1.15,2013-05-06 16:20:00,
2013-05-06 10:25:00,72.6,58.8,29.83,North,5,7.0,13.0,62,0.00,,,0.00,974,Wunderground v.1.15,2013-05-06 16:25:00,
2013-05-06 10:30:00,72.0,58.3,29.83,North,355,9.0,13.0,62,0.00,,,0.00,967,Wunderground v.1.15,2013-05-06 16:30:00,